Flag for U.S.A. Weather past 2 weeks in Gloucester, Massachusetts, U.S.A.

Now
30 °F

Sunny.


Feels Like: 25 °F
Forecast: 31 / 40 °F
Wind: 5 mph from West

Location: Beverly Municipal Airport

Current Time: Dec 29, 2014 at 8:49:35 AM

Latest Report: Dec 29, 2014 at 7:53 AM


Visibility: 10 mi

Pressure: 30.09 "Hg

Humidity: 69%

Dew point: 21 °F

Location of GloucesterLocation

Historic Weather in Gloucester — Graph

°F

Gloucester temperature yesterday

Maximum temperature yesterday: 51 °F (at 1:53 PM)
Minimum temperature yesterday: 38 °F (at 11:53 PM)
Average temperature yesterday: 46 °F

Past Weeks' High & Low Weather Summary

 TemperatureHumidityPressure
High59 °F (Dec 25, 6:53 AM)97% (Dec 17, 2:53 AM)30.39 "Hg (Dec 17, 2:53 AM)
Low25 °F (Dec 19, 11:53 PM)42% (Dec 25, 2:53 PM)29.45 "Hg (Dec 25, 4:53 AM)
Average39 °F75%30.01 "Hg
* Reported Dec 14 7:53 AM — Dec 29 7:53 AM, Gloucester, Weather by CustomWeather, © 2014

Note: Actual official high and low records may vary slightly from our data, if they occured in-between our weather recording intervals... More about our weather records

Advertising

Gloucester weather history for previous 24 hours

 ConditionsComfort  
Time TempWeatherWind HumidityBarometerVisibility
7:53 AM
Dec 29
30 °FSunny.5 mph69%30.09 "Hg10 mi
6:53 AM30 °FClear.No wind69%30.08 "Hg10 mi
5:53 AM30 °FClear.3 mph66%30.07 "Hg10 mi
4:53 AM34 °FClear.5 mph54%30.04 "Hg10 mi
3:53 AM34 °FClear.5 mph54%30.03 "Hg10 mi
2:53 AM35 °FClear.8 mph54%30.03 "Hg10 mi
1:53 AM37 °FClear.14 mph54%30.00 "Hg10 mi
12:53 AM38 °FPassing clouds.7 mph63%29.98 "Hg10 mi
11:53 PM
Dec 28
38 °FClear.7 mph65%29.95 "Hg10 mi
10:53 PM40 °FClear.5 mph60%29.94 "Hg10 mi
9:53 PM41 °FClear.7 mph60%29.92 "Hg10 mi
8:53 PM43 °FClear.12 mph58%29.89 "Hg10 mi
7:53 PM44 °FClear.8 mph60%29.88 "Hg10 mi
6:53 PM45 °FClear.10 mph60%29.87 "Hg10 mi
5:53 PM46 °FClear.9 mph61%29.84 "Hg10 mi
4:53 PM47 °FClear.10 mph56%29.82 "Hg10 mi
3:53 PM49 °FSunny.10 mph59%29.80 "Hg10 mi
2:53 PM51 °FSunny.12 mph56%29.78 "Hg10 mi
1:53 PM51 °FSunny.12 mph63%29.75 "Hg10 mi
12:53 PM50 °FPartly sunny.9 mph71%29.72 "Hg10 mi
11:53 AM47 °FOvercast.10 mph80%29.73 "Hg10 mi
10:53 AM45 °FLight rain. Overcast.9 mph82%29.76 "Hg10 mi
9:53 AM45 °FLight rain. Overcast.9 mph76%29.79 "Hg10 mi
8:53 AM46 °FLight rain. Overcast.10 mph68%29.78 "Hg10 mi
Weather by CustomWeather, © 2014

See weather overviewHow to use our weather pages